Time,TemperatureF,DewpointF,PressureIn,WindDirection,WindDirectionDegrees,WindSpeedMPH,WindSpeedGustMPH,Humidity,HourlyPrecipIn,Conditions,Clouds,dailyrainin,SoftwareType,DateUTC
2013-05-11 00:10:00,73.0,73.0,-100.00,North,-999,0.0,0.0,100,-99.99,,,0.00,,2013-05-11 07:10:00,
2013-05-11 00:20:00,73.0,73.0,-100.00,North,-999,0.0,0.0,100,-99.99,,,-99.99,,2013-05-11 07:20:00,
2013-05-11 00:21:00,72.0,72.0,-100.00,North,-999,0.0,0.0,100,-99.99,,,0.00,,2013-05-11 07:21:00,
2013-05-11 00:40:00,73.0,73.0,-100.00,North,-999,0.0,0.0,100,-99.99,,,0.00,,2013-05-11 07:40:00,
2013-05-11 00:50:00,73.0,73.0,-100.00,North,-999,0.0,0.0,100,-99.99,,,0.00,,2013-05-11 07:50:00,
2013-05-11 01:10:00,72.0,72.0,-100.00,North,-999,0.0,0.0,100,-99.99,,,0.00,,2013-05-11 08:10:00,
2013-05-11 01:20:00,72.0,72.0,-100.00,North,-999,0.0,0.0,100,-99.99,,,0.00,,2013-05-11 08:20:00,
2013-05-11 01:40:00,70.0,70.0,-100.00,North,-999,0.0,0.0,100,-99.99,,,0.00,,2013-05-11 08:40:00,
2013-05-11 01:50:00,70.0,70.0,-100.00,North,-999,0.0,0.0,100,-99.99,,,-99.99,,2013-05-11 08:50:00,
2013-05-11 02:10:00,69.0,69.0,-100.00,North,-999,0.0,0.0,100,-99.99,,,0.00,,2013-05-11 09:10:00,
2013-05-11 02:20:00,69.0,69.0,-100.00,North,-999,0.0,0.0,100,-99.99,,,0.00,,2013-05-11 09:20:00,
2013-05-11 02:40:00,69.0,69.0,-100.00,North,-999,0.0,0.0,100,-99.99,,,0.00,,2013-05-11 09:40:00,
2013-05-11 03:00:00,68.0,68.0,-100.00,North,-999,0.0,0.0,100,-99.99,,,0.00,,2013-05-11 10:00:00,
2013-05-11 03:10:00,68.0,68.0,-100.00,North,-999,0.0,0.0,100,-99.99,,,0.00,,2013-05-11 10:10:00,
2013-05-11 03:20:00,67.0,67.0,-100.00,North,-999,0.0,0.0,100,-99.99,,,0.00,,2013-05-11 10:20:00,
2013-05-11 03:40:00,66.0,66.0,-100.00,North,-999,0.0,0.0,100,-99.99,,,0.00,,2013-05-11 10:40:00,
2013-05-11 03:50:00,66.0,66.0,-100.00,North,-999,0.0,0.0,100,-99.99,,,0.00,,2013-05-11 10:50:00,
2013-05-11 03:52:00,68.0,68.0,-100.00,North,-999,0.0,0.0,100,-99.99,,,0.00,,2013-05-11 10:52:00,
2013-05-11 04:10:00,65.0,65.0,-100.00,North,-999,0.0,0.0,100,-99.99,,,0.00,,2013-05-11 11:10:00,
2013-05-11 04:20:00,65.0,65.0,-100.00,North,-999,0.0,0.0,100,-99.99,,,0.00,,2013-05-11 11:20:00,
2013-05-11 04:40:00,65.0,65.0,-100.00,North,-999,0.0,0.0,100,-99.99,,,0.00,,2013-05-11 11:40:00,
2013-05-11 04:50:00,65.0,65.0,-100.00,North,-999,0.0,0.0,100,-99.99,,,0.00,,2013-05-11 11:50:00,
2013-05-11 05:10:00,65.0,65.0,-100.00,North,-999,0.0,0.0,100,-99.99,,,0.00,,2013-05-11 12:10:00,
2013-05-11 05:20:00,65.0,65.0,-100.00,North,-999,0.0,0.0,100,-99.99,,,0.00,,2013-05-11 12:20:00,
2013-05-11 05:40:00,65.0,65.0,-100.00,North,-999,0.0,0.0,100,-99.99,,,0.00,,2013-05-11 12:40:00,
2013-05-11 05:50:00,65.0,65.0,-100.00,North,-999,0.0,0.0,100,-99.99,,,0.00,,2013-05-11 12:50:00,
2013-05-11 06:10:00,65.0,65.0,-100.00,North,-999,0.0,0.0,100,-99.99,,,0.00,,2013-05-11 13:10:00,
2013-05-11 06:20:00,66.0,66.0,-100.00,North,-999,0.0,0.0,100,-99.99,,,0.00,,2013-05-11 13:20:00,
2013-05-11 06:40:00,66.0,66.0,-100.00,North,-999,0.0,0.0,100,-99.99,,,0.00,,2013-05-11 13:40:00,
2013-05-11 06:50:00,66.0,66.0,-100.00,North,-999,0.0,0.0,100,-99.99,,,0.00,,2013-05-11 13:50:00,
2013-05-11 07:10:00,65.0,65.0,-100.00,North,-999,0.0,0.0,100,-99.99,,,0.00,,2013-05-11 14:10:00,
2013-05-11 07:20:00,65.0,65.0,-100.00,North,-999,0.0,0.0,100,-99.99,,,0.00,,2013-05-11 14:20:00,
2013-05-11 07:50:00,66.0,66.0,-100.00,North,-999,0.0,0.0,100,-99.99,,,0.00,,2013-05-11 14:50:00,
2013-05-11 08:10:00,68.0,68.0,-100.00,North,-999,0.0,0.0,100,-99.99,,,0.00,,2013-05-11 15:10:00,
2013-05-11 08:20:00,69.0,69.0,-100.00,North,-999,0.0,0.0,100,-99.99,,,0.00,,2013-05-11 15:20:00,
2013-05-11 08:40:00,70.0,70.0,-100.00,North,-999,0.0,0.0,100,-99.99,,,0.00,,2013-05-11 15:40:00,
2013-05-11 08:50:00,71.0,71.0,-100.00,North,-999,0.0,0.0,100,-99.99,,,0.00,,2013-05-11 15:50:00,
2013-05-11 09:10:00,72.0,72.0,-100.00,North,-999,0.0,0.0,100,-99.99,,,0.00,,2013-05-11 16:10:00,
2013-05-11 09:20:00,73.0,73.0,-100.00,North,-999,0.0,0.0,100,-99.99,,,-99.99,,2013-05-11 16:20:00,
2013-05-11 09:40:00,75.0,75.0,-100.00,North,-999,0.0,0.0,100,-99.99,,,0.00,,2013-05-11 16:40:00,
2013-05-11 09:50:00,76.0,76.0,-100.00,North,-999,0.0,0.0,100,-99.99,,,0.00,,2013-05-11 16:50:00,
2013-05-11 10:10:00,77.0,77.0,-100.00,North,-999,0.0,0.0,100,-99.99,,,0.00,,2013-05-11 17:10:00,
2013-05-11 10:20:00,78.0,78.0,-100.00,North,-999,0.0,0.0,100,-99.99,,,0.00,,2013-05-11 17:20:00,
2013-05-11 10:40:00,79.0,79.0,-100.00,North,-999,0.0,0.0,100,-99.99,,,0.00,,2013-05-11 17:40:00,
2013-05-11 10:50:00,80.0,80.0,-100.00,North,-999,0.0,0.0,100,-99.99,,,0.00,,2013-05-11 17:50:00,
2013-05-11 11:10:00,81.0,81.0,-100.00,North,-999,0.0,0.0,100,-99.99,,,0.00,,2013-05-11 18:10:00,
2013-05-11 11:20:00,82.0,82.0,-100.00,North,-999,0.0,0.0,100,-99.99,,,0.00,,2013-05-11 18:20:00,
2013-05-11 11:40:00,82.0,82.0,-100.00,North,-999,0.0,0.0,100,-99.99,,,0.00,,2013-05-11 18:40:00,
2013-05-11 11:50:00,82.0,82.0,-100.00,North,-999,0.0,0.0,100,-99.99,,,0.00,,2013-05-11 18:50:00,
2013-05-11 12:10:00,83.0,83.0,-100.00,North,-999,0.0,0.0,100,-99.99,,,0.00,,2013-05-11 19:10:00,
2013-05-11 12:20:00,83.0,83.0,-100.00,North,-999,0.0,0.0,100,-99.99,,,0.00,,2013-05-11 19:20:00,
2013-05-11 12:40:00,83.0,83.0,-100.00,North,-999,0.0,0.0,100,-99.99,,,0.00,,2013-05-11 19:40:00,
2013-05-11 12:50:00,83.0,83.0,-100.00,North,-999,0.0,0.0,100,-99.99,,,0.00,,2013-05-11 19:50:00,
2013-05-11 13:10:00,84.0,84.0,-100.00,North,-999,0.0,0.0,100,-99.99,,,0.00,,2013-05-11 20:10:00,
2013-05-11 13:20:00,84.0,84.0,-100.00,North,-999,0.0,0.0,100,-99.99,,,0.00,,2013-05-11 20:20:00,
2013-05-11 13:40:00,85.0,85.0,-100.00,North,-999,0.0,0.0,100,-99.99,,,0.00,,2013-05-11 20:40:00,
2013-05-11 13:50:00,85.0,85.0,-100.00,North,-999,0.0,0.0,100,-99.99,,,0.00,,2013-05-11 20:50:00,
2013-05-11 14:10:00,87.0,87.0,-100.00,North,-999,0.0,0.0,100,-99.99,,,0.00,,2013-05-11 21:10:00,
2013-05-11 14:20:00,85.0,85.0,-100.00,North,-999,0.0,0.0,100,-99.99,,,0.00,,2013-05-11 21:20:00,
2013-05-11 14:40:00,86.0,86.0,-100.00,North,-999,0.0,0.0,100,-99.99,,,0.00,,2013-05-11 21:40:00,
2013-05-11 14:50:00,86.0,86.0,-100.00,North,-999,0.0,0.0,100,-99.99,,,0.00,,2013-05-11 21:50:00,
2013-05-11 15:10:00,87.0,87.0,-100.00,North,-999,0.0,0.0,100,-99.99,,,0.00,,2013-05-11 22:10:00,
2013-05-11 15:20:00,88.0,88.0,-100.00,North,-999,0.0,0.0,100,-99.99,,,0.00,,2013-05-11 22:20:00,
2013-05-11 16:10:00,88.0,88.0,-100.00,North,-999,0.0,0.0,100,-99.99,,,0.00,,2013-05-11 23:10:00,
2013-05-11 16:20:00,87.0,87.0,-100.00,North,-999,0.0,0.0,100,-99.99,,,-99.99,,2013-05-11 23:20:00,
2013-05-11 16:32:00,86.0,86.0,-100.00,North,-999,0.0,0.0,100,-99.99,,,0.00,,2013-05-11 23:32:00,
2013-05-11 17:10:00,88.0,88.0,-100.00,North,-999,0.0,0.0,100,-99.99,,,0.00,,2013-05-12 00:10:00,
2013-05-11 17:20:00,87.0,87.0,-100.00,North,-999,0.0,0.0,100,-99.99,,,-99.99,,2013-05-12 00:20:00,
2013-05-11 17:40:00,87.0,87.0,-100.00,North,-999,0.0,0.0,100,-99.99,,,0.00,,2013-05-12 00:40:00,
2013-05-11 18:00:00,84.0,84.0,-100.00,North,-999,0.0,0.0,100,-99.99,,,0.00,,2013-05-12 01:00:00,
2013-05-11 18:10:00,83.0,83.0,-100.00,North,-999,0.0,0.0,100,-99.99,,,0.00,,2013-05-12 01:10:00,
2013-05-11 18:20:00,83.0,83.0,-100.00,North,-999,0.0,0.0,100,-99.99,,,0.00,,2013-05-12 01:20:00,
2013-05-11 18:40:00,81.0,81.0,-100.00,North,-999,0.0,0.0,100,-99.99,,,0.00,,2013-05-12 01:40:00,
2013-05-11 18:50:00,81.0,81.0,-100.00,North,-999,0.0,0.0,100,-99.99,,,0.00,,2013-05-12 01:50:00,
2013-05-11 18:52:00,84.0,84.0,-100.00,North,-999,0.0,0.0,100,-99.99,,,0.00,,2013-05-12 01:52:00,
2013-05-11 19:10:00,80.0,80.0,-100.00,North,-999,0.0,0.0,100,-99.99,,,0.00,,2013-05-12 02:10:00,
2013-05-11 19:20:00,80.0,80.0,-100.00,North,-999,0.0,0.0,100,-99.99,,,0.00,,2013-05-12 02:20:00,
2013-05-11 19:40:00,79.0,79.0,-100.00,North,-999,0.0,0.0,100,-99.99,,,0.00,,2013-05-12 02:40:00,
2013-05-11 19:50:00,78.0,78.0,-100.00,North,-999,0.0,0.0,100,-99.99,,,0.00,,2013-05-12 02:50:00,
2013-05-11 20:10:00,77.0,77.0,-100.00,North,-999,0.0,0.0,100,-99.99,,,0.00,,2013-05-12 03:10:00,
2013-05-11 20:40:00,77.0,77.0,-100.00,North,-999,0.0,0.0,100,-99.99,,,0.00,,2013-05-12 03:40:00,
2013-05-11 20:50:00,77.0,77.0,-100.00,North,-999,0.0,0.0,100,-99.99,,,0.00,,2013-05-12 03:50:00,
2013-05-11 21:10:00,76.0,76.0,-100.00,North,-999,0.0,0.0,100,-99.99,,,0.00,,2013-05-12 04:10:00,
2013-05-11 21:20:00,75.0,75.0,-100.00,North,-999,0.0,0.0,100,-99.99,,,0.00,,2013-05-12 04:20:00,
2013-05-11 21:40:00,75.0,75.0,-100.00,North,-999,0.0,0.0,100,-99.99,,,0.00,,2013-05-12 04:40:00,
2013-05-11 21:50:00,75.0,75.0,-100.00,North,-999,0.0,0.0,100,-99.99,,,0.00,,2013-05-12 04:50:00,
2013-05-11 22:10:00,75.0,75.0,-100.00,North,-999,0.0,0.0,100,-99.99,,,0.00,,2013-05-12 05:10:00,
2013-05-11 22:20:00,74.0,74.0,-100.00,North,-999,0.0,0.0,100,-99.99,,,0.00,,2013-05-12 05:20:00,
2013-05-11 22:40:00,74.0,74.0,-100.00,North,-999,0.0,0.0,100,-99.99,,,0.00,,2013-05-12 05:40:00,
2013-05-11 22:50:00,73.0,73.0,-100.00,North,-999,0.0,0.0,100,-99.99,,,0.00,,2013-05-12 05:50:00,
2013-05-11 23:10:00,74.0,74.0,-100.00,North,-999,0.0,0.0,100,-99.99,,,0.00,,2013-05-12 06:10:00,
2013-05-11 23:30:00,74.0,74.0,-100.00,North,-999,0.0,0.0,100,-99.99,,,0.00,,2013-05-12 06:30:00,
2013-05-11 23:50:00,73.0,73.0,-100.00,North,-999,0.0,0.0,100,-99.99,,,0.00,,2013-05-12 06:50:00,